Miscellaneous Local Product
Issued by NWS Hastings, NE

Home | Current Version | Previous Version | Text Only | Print | Product List | Glossary On
Versions: 1 2 3 4 5 6 7 8 9 10 11 12 13 14 15 16 17 18 19 20 21 22 23 24 25 26 27 28 29 30 31 32 33 34 35 36 37 38 39 40 41 42 43 44 45 46 47 48 49 50
000
AXUS43 KGID 230102
MISGRI

GID CWA HOURLY WEATHER ROUNDUP
NATIONAL WEATHER SERVICE HASTINGS NE
800 PM CDT WED OCT 22 2014

NOTE: "FAIR" INDICATES FEW OR NO CLOUDS BELOW 12,000 FEET WITH NO
SIGNIFICANT WEATHER AND/OR OBSTRUCTIONS TO VISIBILITY.

...SOUTH CENTRAL NEBRASKA...

CITY           SKY/WX    TMP DP  RH WIND       PRES   REMARKS
GRAND ISLAND   MOCLDY    59  58  96 CALM      30.03R FOG
HASTINGS       CLOUDY    62  57  83 S3        30.02R
KEARNEY        PTCLDY    57  55  94 CALM      30.03R
ORD            PTCLDY    54  53  97 NW3       30.02R
YORK           CLOUDY    63  59  88 SE7       30.03S
AURORA         CLOUDY    61  61  99 CALM      30.03R
LEXINGTON      CLEAR     56  53  89 NE3       30.04R
HOLDREGE       PTCLDY    53  51  92 CALM      30.02R FOG
HEBRON         LGT RAIN  62  58  86 S7        30.04S

...NEBRASKA PANHANDLE...

CITY           SKY/WX    TMP DP  RH WIND       PRES   REMARKS
CHADRON        CLEAR     46  33  60 S7        30.03R
ALLIANCE       PTCLDY    46  31  55 SE5       30.06R
SCOTTSBLUFF    CLEAR     55  26  32 VRB6      30.06R
SIDNEY         CLOUDY    50  37  61 E3        30.10R

...WESTERN AND NORTH CENTRAL NEBRASKA...

CITY           SKY/WX    TMP DP  RH WIND       PRES   REMARKS
VALENTINE      CLEAR     51  40  65 CALM      30.04R
AINSWORTH      CLEAR     49  42  76 CALM      30.05R
ONEILL         PTCLDY    53  52  97 CALM      30.03S
BROKEN BOW     CLEAR     51  49  92 N5        30.04R
IMPERIAL       CLEAR     59  34  39 NW5       30.06R
NORTH PLATTE   CLEAR     54  49  83 CALM      30.04R
MCCOOK         CLEAR     59  50  72 E6        30.03R

...EASTERN NEBRASKA...

CITY           SKY/WX    TMP DP  RH WIND       PRES   REMARKS
NORFOLK        CLOUDY    59  58  96 CALM      30.03R
SO SIOUX CITY  CLOUDY    60  58  92 S5        30.03R
TEKAMAH        RAIN      63  60  90 SW14      30.02F FOG
COLUMBUS       CLOUDY    61  57  88 S6        30.04R
ALBION         CLOUDY    59  57  93 CALM      30.02S
OMAHA EPPLEY   LGT RAIN  64  61  90 CALM      30.07R FOG
OFFUTT AFB     HVY RAIN  64  64 100 NW10      30.05R FOG
MILLARD        RAIN      64  62  91 W9        30.05R
LINCOLN        LGT RAIN  62  60  93 N9        30.06R FOG
NEBRASKA CITY  CLOUDY    69  51  54 S16       30.04S
BEATRICE       RAIN      63  59  87 S18       30.05R
FALLS CITY     LGT RAIN  66  56  70 SE9       30.05R

...NORTHERN KANSAS...

CITY           SKY/WX    TMP DP  RH WIND       PRES   REMARKS
GOODLAND       CLEAR     56  46  69 SE6       30.07R
HILL CITY      MOCLDY    65  58  78 CALM      30.03S
NORTON         CLEAR     55  48  76 N3        30.02R
PHILLIPSBURG   PTCLDY    66  63  88 CALM      30.01S
SMITH CENTER   MOCLDY    64  55  72 S9        30.02R
BELOIT         CLOUDY    64  57  77 S9        30.01R
HAYS           CLOUDY    64  54  68 S8        30.04R
RUSSELL        CLOUDY    64  56  75 S15       30.02R
CONCORDIA      LGT RAIN  62  60  93 S14       30.03R FOG
SALINA         CLOUDY    65  59  81 S15       30.06R
TOPEKA         MOCLDY    68  59  73 SE8       30.07R



USA.gov is the U.S. government's official web portal to all federal, state and local government web resources and services.